#timestamp,LO_Frequency,Hit,StdDev 
1542099615.5,286046992.7,Y
1542099635.3,286046993.4,P
1542099655.1,286046993.6,P
1542099675.9,286046993.5,P
1542099695.7,286046996.1,Y
1542099715.5,286047002.8,P
1542099735.4,286047002.1,N
1542099755.2,286047004.6,N
1542099775.1,286047010.3,N
1542099776.0,286047010.3,N
1542099795.8,286047007.9,N
1542099815.6,286047008.2,N
1542099835.5,286047010.9,N
1542099855.3,286047011.8,N
1542099875.1,286047011.7,N
1542099895.9,286047013.9,N
1542099915.7,286047015.1,N
1542099935.6,286047015.1,N
1542099955.4,286047014.6,N
1542099975.2,286047013.2,N
1542099995.1,286047012.7,N
1542099996.0,286047012.7,N
1542100015.8,286047015.0,N
1542100035.7,286047012.7,N
1542100055.5,286047010.2,N
1542100075.3,286047008.1,N
1542100095.2,286047010.7,N
1542100115.0,286047007.2,N
1542100115.9,286047007.2,N
1542100135.7,286047004.8,N
1542100155.6,286047002.9,N
1542100175.4,286047007.6,N
1542100195.3,286047004.9,N
1542100215.1,286047007.6,N
1542100235.8,286047006.3,N
1542100255.7,286047009.2,N
1542100275.5,286047009.5,N
1542100295.4,286047012.3,Y
1542100315.2,286046998.7,P
1542100335.0,286046996.2,N
1542100335.9,286046996.2,N
1542100355.8,286046996.2,N
1542100375.6,286046996.1,N
1542100395.4,286046995.6,N
1542100415.3,286046997.4,N
1542100435.1,286046995.0,N
1542100455.9,286046996.0,N
1542100475.7,286046994.0,N
1542100495.5,286046993.6,N
1542100515.4,286046995.2,N
1542100535.2,286047001.0,N
1542100555.0,286047002.4,N
1542100555.9,286047002.4,N
1542100575.8,286047002.5,N
1542100595.6,286047003.0,N
1542100615.4,286047003.3,N
1542100635.3,286047005.3,N
1542100655.1,286047004.5,N
1542100675.9,286047003.4,N
1542100695.7,286047005.4,N
1542100715.5,286047006.5,N
1542100735.4,286047007.8,N
1542100755.2,286047009.4,N
1542100775.0,286047010.1,N
1542100775.9,286047010.1,N
1542100795.8,286047008.3,N
1542100815.6,286047006.9,N
1542100835.5,286047007.5,N
1542100855.3,286047003.3,N
1542100875.1,286047005.7,N
1542100895.9,286047005.2,N
1542100915.7,286047003.9,N
1542100935.5,286047002.4,N
1542100955.4,286047004.2,N
1542100975.2,286047005.5,N
1542100995.1,286047006.6,N
1542100996.0,286047006.6,N
1542101015.8,286047007.0,N
1542101035.6,286047009.1,N
1542101055.5,286047008.2,N
1542101075.3,286047008.9,Y
1542101095.1,286047003.6,P
1542101115.9,286047006.5,P
1542101135.7,286047008.8,P
1542101185.6,286047008.6,E
1542101195.5,286047003.3,N
1542101215.3,286046999.2,P
1542101235.2,286046998.5,N
1542101255.0,286046998.5,N
1542101255.9,286046998.5,N
1542101275.7,286046996.6,N
1542101295.6,286046995.1,N
1542101315.4,286046996.4,N
1542101335.3,286046999.2,N
1542101355.1,286047001.2,N
1542101356.0,286047001.2,N
1542101375.8,286047000.1,N
1542101395.7,286047001.7,N
1542101415.5,286047001.7,N
1542101435.3,286047000.1,N
1542101455.2,286046999.0,N
1542101475.0,286047000.6,N
1542101475.9,286047000.6,N
1542101495.8,286047000.7,N
1542101515.6,286046999.9,N
1542101535.4,286047000.7,N
1542101555.3,286047001.1,N
1542101575.1,286047001.2,N
1542101595.8,286047001.1,N
1542101615.7,286047001.2,N
1542101635.5,286046999.8,N
1542101655.3,286047004.2,N
1542101675.2,286047003.1,N
1542101695.0,286047005.9,N
1542101695.9,286047005.9,N
1542101715.8,286047005.9,N
1542101735.6,286047004.7,N
1542101755.4,286047006.8,N
1542101775.3,286047009.1,Y
1542101795.1,286047006.4,P
1542101815.8,286047007.3,N
1542101835.7,286047004.7,N
1542101855.5,286047003.3,N
1542101875.4,286047004.2,N
1542101895.2,286046999.7,N
1542101915.0,286047002.1,N
1542101915.9,286047002.1,N
1542101935.8,286047001.9,N
1542101955.6,286047000.8,N
1542101975.4,286046998.1,N
1542101995.3,286046996.6,N
1542102015.1,286046996.6,N
1542102035.9,286046996.7,N
1542102055.7,286046999.6,N
1542102075.5,286046996.3,N
1542102095.4,286046994.7,N
1542102115.2,286046994.8,N
1542102135.0,286046993.3,N
1542102135.9,286046993.3,N
1542102155.8,286046995.2,N
1542102175.6,286046993.8,N
1542102195.4,286046995.3,N
1542102215.3,286046996.7,N
1542102235.1,286046997.6,N
1542102255.9,286046995.8,N
1542102275.7,286046991.7,N
1542102295.5,286046994.3,N
1542102315.4,286046992.9,N
1542102335.2,286046992.6,N
1542102355.0,286046991.8,N
1542102355.9,286046991.8,N
1542102375.8,286046991.9,N
1542102395.6,286046993.1,N
1542102415.5,286046992.8,N
1542102435.3,286046992.5,N
1542102455.1,286046994.7,N
1542102475.9,286046993.9,N
1542102495.7,286046992.7,N
1542102515.5,286046991.0,Y
1542102535.4,286046996.4,P
1542102555.2,286046996.1,P
1542102575.1,286046997.7,P
1542102576.0,286046997.7,N
1542102595.8,286046995.5,Y
1542102615.6,286047000.8,P
1542102635.5,286047001.2,N
1542102655.3,286046998.3,N
1542102675.1,286047001.9,N
1542102695.9,286047001.0,N
1542102715.7,286047000.1,N
1542102735.6,286047002.4,N
1542102755.4,286047002.4,N
1542102775.2,286046999.1,N
1542102795.1,286046995.4,N
1542102796.0,286046995.4,N
1542102815.8,286046999.0,N
1542102835.6,286047000.7,N
1542102855.5,286046999.4,N
1542102875.3,286046997.4,N
1542102895.2,286046993.4,N
1542102915.9,286046992.5,N
1542102935.7,286046990.7,Y
1542102955.6,286046990.7,P
1542102975.4,286046991.1,N
1542102995.2,286046992.7,N
1542103015.1,286046991.1,N
1542103016.0,286046991.1,N
1542103035.8,286046990.1,Y
1542103055.7,286046997.4,P
1542103075.5,286046998.5,N
1542103095.3,286047000.3,N
1542103115.2,286046998.9,N
1542103135.0,286046996.8,N
1542103135.9,286046996.8,N
1542103155.7,286046998.3,N
1542103175.6,286047002.3,N
1542103195.4,286046999.9,N
